Location: *
(51.1248°S, 108.4023°W)
Time: 01:37:09
(UTC+00:00)

Cosmos 1544 - Pass Details

Date: 27 October 2021
Orbit: 467 x 486 km, 82.5° (Epoch: 03 December)

Event Time Altitude Azimuth Distance (km) Brightness Sun altitude
Exits shadow 08:39:09 47° 230° (SW) 656 3.7 -22.3°
Drops below altitude 10° 08:42:19 10° 179° (S) 1,685 6.7 -22.0°
Sets 08:44:30 0° 173° (S) 2,577 7.9 -21.9°
